Regional Weather Roundup
Issued by NWS Kansas City/Pleasant Hill, MO

Home | Current Version | Previous Version | Text Only | Print | Product List | Glossary On
Versions: 1 2 3 4 5 6 7 8 9 10 11 12 13 14 15 16 17 18 19 20 21 22 23 24 25 26 27 28 29 30 31 32 33 34 35 36 37 38 39 40 41 42 43 44 45 46 47 48 49 50
523
ASUS43 KEAX 252310
RWREAX

WEATHER ROUNDUP FOR EASTERN KANSAS AND NORTHWEST MISSOURI
NATIONAL WEATHER SERVICE KANSAS CITY/PLEASANT HILL MO
600 PM CDT WED MAY 25 2016

KSZ040-057-103>105-MOZ028-029-037-043-260000-
...KANSAS CITY METROPOLITAN AREA...

CITY           SKY/WX    TMP DP  RH WIND       PRES   REMARKS
K.C. INTL      MOSUNNY   81  66  60 S14       29.85F
K.C. DOWNTOWN  SUNNY     83  65  54 SW14G21   29.84F
LEES SUMMIT    SUNNY     83  65  54 SW21G29   29.87S
OLATHE - IXD   MOSUNNY   80  66  62 S13       29.87S
OLATHE - OJC   PTSUNNY   78  65  63 S17G23    29.87S
LAWRENCE       MOSUNNY   81  67  62 S15       29.84F

$$

MOZ001>008-011>017-020>025-030>033-038>040-044>046-053-054-260000-
...NORTHERN AND CENTRAL MISSOURI...

CITY           SKY/WX    TMP DP  RH WIND       PRES   REMARKS
ST. JOSEPH     CLOUDY    80  67  64 S7        29.84F
MOSBY          MOCLDY    82  63  51 S8        29.85F
WHITEMAN AFB   MOSUNNY   83  66  56 SW15      29.87S
CLINTON        SUNNY     84  66  54 S12G18    29.89S
SEDALIA        SUNNY     83  65  54 S13       29.90S
WARSAW         NOT AVBL
CHILLICOTHE      N/A     84  64  50 S12       29.86F
KIRKSVILLE     SUNNY     82  62  50 S8        29.88F

$$

MOZ041-047>049-056>058-063>065-088>090-097-260000-
...EASTERN AND SOUTHERN MISSOURI...

CITY           SKY/WX    TMP DP  RH WIND       PRES   REMARKS
ST. LOUIS INTL PTSUNNY   83  62  49 S14       29.93R
SPIRIT OF STL  PTSUNNY   82  65  56 S10G17    29.91S
COLUMBIA       SUNNY     83  64  52 S12       29.90F
JEFFERSON CITY SUNNY     82  64  54 S12       29.90S
ROLLA          SUNNY     79  63  57 S7        29.94S
SPRINGFIELD    MOSUNNY   80  65  59 S13       29.93F
BRANSON        MOSUNNY   81  68  65 S6        29.98F
JOPLIN         CLOUDY    80  70  71 S9        29.91S
WEST PLAINS    SUNNY     77  64  64 S8        30.01F

$$

IAZ060-094-KSZ022-034>040-054-083-096-NEZ052-066-093-260000-
...KANSAS...SOUTHEAST NEBRASKA AND IOWA...

CITY           SKY/WX    TMP DP  RH WIND       PRES   REMARKS
TOPEKA         MOSUNNY   81  67  62 S14G23    29.83F
MANHATTAN      CLOUDY    81  69  67 S12       29.80F
EMPORIA        CLOUDY    80  71  74 SE17      29.82F
CHANUTE        PTSUNNY   81  71  71 SE15      29.86S
WICHITA        MOSUNNY   88  72  58 S18G25    29.79S HX  94
OMAHA          CLOUDY    78  65  63 SW13      29.82F
LINCOLN        CLOUDY    75  67  76 S6        29.83F
FALLS CITY     CLOUDY    79  67  66 S9        29.83F
LAMONI         PTSUNNY   77  65  66 SW12      29.87R
DES MOINES     MOSUNNY   78  62  57 CALM      29.85F

$$





USA.gov is the U.S. government's official web portal to all federal, state and local government web resources and services.